Le nostre stazioni meteo in Italia

Pubblicità
Il mio iltempo24.it
Trento, Italia (16023): Temperatura & dewpoint: 10.02.2019 07:00:00 - 16.02.2019 07:00:00 (CET)Trento, Italia (16023): velocità del vento: 10.02.2019 07:00:00 - 16.02.2019 07:00:00 (CET)Trento, Italia (16023): direzione del vento: 10.02.2019 07:00:00 - 16.02.2019 07:00:00 (CET)Trento, Italia (16023): reduced air pressure: 10.02.2019 07:00:00 - 16.02.2019 07:00:00 (CET)Trento, Italia (16023): precipitazioni: 10.02.2019 07:00:00 - 16.02.2019 07:00:00 (CET)
Data & Tempo tt [°C] td [°C] ff [km/h] ff [kn] dd ppp [hPa] rr [mm]
16.02.2019 07:00:00 - - - - - - -
16.02.2019 06:00:00 0,1 -3,7 2 1 E 1034,9 -
16.02.2019 05:00:00 0,1 -3,9 4 2 NE 1034,8 -
16.02.2019 04:00:00 1,1 -2,4 8 4 N 1034,9 -
16.02.2019 03:00:00 0,7 -3,6 4 2 E 1035,1 -
16.02.2019 02:00:00 1,5 -2,9 8 4 N 1035,0 -
16.02.2019 01:00:00 1,8 -2,8 0 0 N 1035,0 -
16.02.2019 00:00:00 2,2 -2,8 0 0 N 1034,7 -
15.02.2019 23:00:00 2,3 -2,7 0 0 N 1034,2 -
15.02.2019 22:00:00 3,4 -2,4 5 3 O 1034,1 -
15.02.2019 21:00:00 4,2 -2,5 0 0 N 1033,4 -
15.02.2019 20:00:00 - - - - - - -
15.02.2019 19:00:00 6,9 -3,2 0 0 N 1032,5 -
15.02.2019 18:00:00 9,2 -4,5 0 0 N 1031,1 -
15.02.2019 17:00:00 11,6 -6,4 0 0 N 1030,3 -
15.02.2019 16:00:00 15,9 -5,3 0 0 N 1029,5 -
15.02.2019 15:00:00 15,5 -4,0 0 0 N 1029,5 -
15.02.2019 14:00:00 13,6 -4,7 9 5 O 1030,1 -
15.02.2019 13:00:00 11,6 -4,3 13 7 NNO 1031,6 -
15.02.2019 12:00:00 9,8 -4,3 5 3 N 1033,1 -
15.02.2019 11:00:00 8,1 -3,9 13 7 NNO 1034,1 -
15.02.2019 10:00:00 6,2 -1,5 2 1 NO 1035,0 -
15.02.2019 09:00:00 2,5 -1,4 2 1 NE 1035,6 -
15.02.2019 08:00:00 0,4 -3,2 2 1 E 1035,8 -
15.02.2019 07:00:00 0,1 -3,5 8 4 NE 1035,4 -
15.02.2019 06:00:00 0,2 -3,4 5 3 E 1035,3 -
15.02.2019 05:00:00 0,1 -3,5 5 3 E 1035,4 -
15.02.2019 04:00:00 0,2 -3,1 5 3 N 1035,6 -
15.02.2019 03:00:00 -0,1 -3,7 0 0 N 1035,6 -
15.02.2019 02:00:00 1,3 -2,7 4 2 E 1036,0 -
15.02.2019 01:00:00 1,8 -2,6 5 3 N 1036,0 -
15.02.2019 00:00:00 2,5 -1,9 4 2 NNE 1035,8 -
14.02.2019 23:00:00 2,2 -2,8 4 2 NNO 1035,4 -
14.02.2019 22:00:00 3,0 -3,0 4 2 ENE 1035,1 -
14.02.2019 21:00:00 - - - - - - -
14.02.2019 20:00:00 5,8 -1,5 4 2 NE 1034,8 -
14.02.2019 19:00:00 5,6 -3,3 0 0 N 1033,9 -
14.02.2019 18:00:00 8,1 -3,9 0 0 N 1032,9 -
14.02.2019 17:00:00 11,2 -3,4 0 0 N 1032,6 -
14.02.2019 16:00:00 12,3 -3,6 8 4 NO 1032,7 -
14.02.2019 15:00:00 12,3 -3,6 4 2 N 1032,8 -
14.02.2019 14:00:00 12,1 -2,6 2 1 ONO 1033,7 -
14.02.2019 13:00:00 9,3 -3,1 5 3 NNE 1035,0 -
14.02.2019 12:00:00 8,2 -3,5 8 4 NNO 1036,5 -
14.02.2019 11:00:00 6,8 -3,0 8 4 E 1037,3 -
14.02.2019 10:00:00 5,5 -1,1 5 3 ONO 1038,0 -
14.02.2019 09:00:00 2,0 -1,1 0 0 N 1038,9 -
14.02.2019 08:00:00 -0,3 -3,4 0 0 N 1039,1 -
14.02.2019 07:00:00 -0,8 -3,7 4 2 ENE 1039,0 0,0
14.02.2019 06:00:00 -1,1 -4,2 0 0 N 1039,3 -
14.02.2019 05:00:00 -0,8 -4,0 0 0 N 1039,3 -
14.02.2019 04:00:00 -0,6 -4,2 0 0 N 1039,6 -
14.02.2019 03:00:00 -0,3 -4,1 4 2 NE 1039,8 -
14.02.2019 02:00:00 -0,3 -4,1 4 2 NNE 1039,9 -
14.02.2019 01:00:00 -0,2 -4,2 0 0 N 1039,8 0,0
14.02.2019 00:00:00 0,6 -3,7 4 2 NE 1039,7 -
13.02.2019 23:00:00 1,3 -3,4 2 1 O 1039,1 -
13.02.2019 22:00:00 2,0 -3,8 0 0 N 1038,6 -
13.02.2019 21:00:00 2,8 -3,6 0 0 N 1038,1 -
13.02.2019 20:00:00 3,9 -4,4 0 0 N 1037,7 -
13.02.2019 19:00:00 5,4 -4,9 0 0 N 1036,7 0,0
13.02.2019 18:00:00 7,0 -6,1 2 1 E 1035,5 -
13.02.2019 17:00:00 8,7 -7,6 8 4 NNO 1034,7 -
13.02.2019 16:00:00 11,4 -9,1 0 0 N 1034,5 -
13.02.2019 15:00:00 11,4 -8,6 0 0 N 1034,6 -
13.02.2019 14:00:00 10,1 -7,3 0 0 N 1035,4 -
13.02.2019 13:00:00 8,6 -7,7 0 0 N 1036,3 -
13.02.2019 12:00:00 7,6 -7,8 5 3 NO 1037,3 -
13.02.2019 11:00:00 6,0 -7,4 13 7 N 1037,7 -
13.02.2019 10:00:00 4,3 -5,1 4 2 NE 1038,0 -
13.02.2019 09:00:00 1,2 -4,7 0 0 N 1038,2 -
13.02.2019 08:00:00 -0,4 -6,3 4 2 ESE 1037,5 -
13.02.2019 07:00:00 -0,4 -6,5 2 1 E 1036,6 0,0
13.02.2019 06:00:00 0,0 -6,3 5 3 NE 1035,9 -
13.02.2019 05:00:00 0,1 -7,1 0 0 N 1035,4 -
13.02.2019 04:00:00 0,4 -7,5 4 2 E 1035,0 -
13.02.2019 03:00:00 2,0 -7,7 0 0 N 1034,6 -
13.02.2019 02:00:00 3,7 -8,2 4 2 NO 1033,8 -
13.02.2019 01:00:00 6,3 -8,6 8 4 N 1033,1 0,0
13.02.2019 00:00:00 5,4 -9,7 5 3 SO 1032,2 -
12.02.2019 23:00:00 7,6 -9,5 11 6 NE 1031,5 -
12.02.2019 22:00:00 6,8 -8,9 5 3 NNE 1030,9 -
12.02.2019 21:00:00 7,4 -9,6 8 4 ENE 1029,6 -
12.02.2019 20:00:00 7,7 -10,3 15 8 NE 1028,3 -
12.02.2019 19:00:00 7,7 -9,8 5 3 ENE 1027,4 0,0
12.02.2019 18:00:00 10,1 -12,0 5 3 ENE 1025,9 -
12.02.2019 17:00:00 12,5 -14,3 13 7 N 1024,4 -
12.02.2019 16:00:00 13,9 -14,1 15 8 NNE 1023,4 -
12.02.2019 15:00:00 14,1 -13,9 18 10 NNO 1023,1 -
12.02.2019 14:00:00 13,6 -14,3 21 11 N 1023,3 -
12.02.2019 13:00:00 12,8 -14,1 28 15 N 1023,8 -
12.02.2019 12:00:00 11,7 -12,7 34 18 NNO 1024,6 -
12.02.2019 11:00:00 10,6 -12,2 31 17 NNO 1024,8 -
12.02.2019 10:00:00 9,3 -9,9 4 2 ENE 1025,5 -
12.02.2019 09:00:00 6,3 -9,3 15 8 E 1025,7 -
12.02.2019 08:00:00 5,1 -8,9 9 5 NE 1025,9 -
12.02.2019 07:00:00 3,8 -9,0 8 4 NNE 1025,5 0,0
12.02.2019 06:00:00 4,4 -8,8 8 4 N 1025,3 -
12.02.2019 05:00:00 5,1 -8,9 13 7 NE 1024,4 -
12.02.2019 04:00:00 5,7 -9,1 15 8 E 1023,7 -
12.02.2019 03:00:00 5,2 -7,8 15 8 E 1023,4 -
12.02.2019 02:00:00 2,9 -8,3 8 4 E 1023,5 -
12.02.2019 01:00:00 4,5 -10,5 2 1 ESE 1023,0 0,0
12.02.2019 00:00:00 7,6 -11,3 5 3 NE 1021,6 -
11.02.2019 23:00:00 7,6 -12,4 11 6 NO 1020,7 -
11.02.2019 22:00:00 8,4 -11,7 26 14 N 1020,2 -
11.02.2019 21:00:00 8,4 -11,7 24 13 N 1019,1 -
11.02.2019 20:00:00 8,5 -10,6 22 12 NE 1018,0 -
11.02.2019 19:00:00 9,1 -11,1 18 10 NNE 1016,9 0,0
11.02.2019 18:00:00 9,5 -11,3 28 15 NE 1015,7 -
11.02.2019 17:00:00 10,4 -10,5 21 11 NE 1014,1 -
11.02.2019 16:00:00 11,1 -11,8 21 11 ENE 1013,0 -
11.02.2019 15:00:00 11,6 -10,7 26 14 N 1012,0 -
11.02.2019 14:00:00 11,0 -8,4 26 14 NE 1011,7 -
11.02.2019 13:00:00 9,8 -2,0 5 3 S 1011,9 0,0
11.02.2019 12:00:00 8,0 -0,6 11 6 NE 1012,0 -
11.02.2019 11:00:00 6,4 0,2 16 9 NE 1011,7 -
11.02.2019 10:00:00 4,5 0,9 15 8 ENE 1011,5 -
11.02.2019 09:00:00 3,0 0,9 13 7 NNO 1010,9 -
11.02.2019 08:00:00 3,0 1,7 8 4 NNE 1010,5 -
11.02.2019 07:00:00 1,6 0,7 8 4 ONO 1009,1 -
11.02.2019 06:00:00 1,0 -0,2 0 0 N 1008,4 -
11.02.2019 05:00:00 0,8 -0,5 0 0 N 1008,1 -
11.02.2019 04:00:00 1,2 -0,6 0 0 N 1007,7 -
11.02.2019 03:00:00 2,5 0,5 0 0 N 1006,9 -
11.02.2019 02:00:00 4,0 2,6 8 4 ONO 1006,9 -
11.02.2019 01:00:00 3,7 1,9 5 3 ONO 1006,7 -
11.02.2019 00:00:00 3,2 1,9 16 9 NNE 1006,0 -
10.02.2019 23:00:00 3,2 2,0 0 0 N 1006,1 -
10.02.2019 22:00:00 3,2 1,9 0 0 N 1006,8 -
10.02.2019 21:00:00 3,4 2,1 0 0 N 1007,7 -
10.02.2019 20:00:00 3,4 2,1 2 1 E 1008,7 -
10.02.2019 19:00:00 3,6 2,2 0 0 N 1009,3 -
10.02.2019 18:00:00 3,6 2,2 0 0 N 1010,4 -
10.02.2019 17:00:00 3,6 2,1 0 0 N 1011,7 -
10.02.2019 16:00:00 3,8 1,6 2 1 SO 1013,4 -
10.02.2019 15:00:00 4,0 1,7 4 2 NE 1014,7 -
10.02.2019 14:00:00 4,0 2,0 8 4 ONO 1015,3 -
10.02.2019 13:00:00 3,9 1,7 0 0 N 1016,7 -
10.02.2019 12:00:00 3,7 1,4 2 1 ONO 1018,1 -
10.02.2019 11:00:00 3,4 1,4 2 1 E 1018,7 -
10.02.2019 10:00:00 3,2 1,4 4 2 NO 1019,7 -
10.02.2019 09:00:00 2,9 0,8 4 2 O 1020,1 -
10.02.2019 08:00:00 2,7 0,1 5 3 ENE 1020,2 -
10.02.2019 07:00:00 3,2 -0,9 0 0 N 1020,1 0,0

tt = Temperatura
td = dewpoint
ff = velocità del vento
dd = direzione del vento
ppp = reduced air pressure
rr = precipitazioni

Stazioni seguenti

WeatherPro
AMSI
MeteoEarth